Showing default

PELICAN 3001, 58296

Orbit data source: Space-Track

PELICAN 3001, 58296 is a payload satellite owned by Planet (US) in SSO that was launched on Sat, 11 Nov 2023 UTC via an FALCON 9 launch vehicle from the Air Force Western Test Range (AFWTR). Payload-class satellites include a variety of spacecraft equipped with specific instruments for various scientific and technological missions. These include communications satellites like Starlink; space stations such as the ISS; scientific satellites like the Hubble; Earth observation satellites from companies like Planet Labs, Umbra, and HawkEye 360; GPS; miniature CubeSats for education and research; and military/defense satellites.

Loading next visibility...
Identifier
58296, 2023-174AS
Orbit
SSO
Country
Flag of USUS
Related business
Manufacturer
Planet
Mission
Operational Commercial Imaging
Bus & Motor
PELICAN, XE AOCS
Mass
160 kg wet, 146 kg dry
Launch date (UTC)
2023-11-11 (2 years ago)
Launch vehicle
FALCON 9
Launch site
Air Force Western Test Range (AFWTR)
Object type
Payload
Rocket body
Debris
Shape & HBR
Box + 2 Pan, 1.0 m
Radar Cross Section
1.955 m², Large (>1 m²)

Expand to show TLE details & history
Last TLE update: 19 hours ago

TLE from 19 hours ago
0 PELICAN 3001
1 58296U 23174AS  25288.49647830  .00047552  00000-0  86865-3 0  9992
2 58296  97.4161  13.0203 0009368 102.7938 257.4361 15.49211131107997
Epoch: 2025-10-15T11:54Z
TLE epoch observation values (Epoch: 2025-10-15T11:54:55.725Z)
Latitude
0.00007°
Longitude
170.01839°
Altitude
423.553 km
Speed
7.656 km/s
True Right ascension
00h 52m 04s
True Declination
0° 00' 00"
Sunlit
Object was in full shadow at epoch
Visualization orbit readout
Latitude
Unknown
Longitude
Unknown
Altitude
Unknown
Speed
Unknown
Apparent Right ascension
Unknown
Apparent Declination
Unknown
Sunlit
N/A
Visualization observer readout
Local Sidereal Time
01:34:40
Azimuth
Unknown
Elevation
Unknown
Doppler factor
Unknown
Orbital elements
Apogee altitude
422.325 km
Perigee altitude
409.595 km
Semi-major axis
6,794.097 km
Eccentricity
0.00094
Inclination
97.4161°
RAAN
13.0203°
Arg. of periapsis
102.7938°
True anomaly
257.33135°
Mean anomaly
257.4361°
Eccentric anomaly
257.38372°
Mean motion
3.87566 °/min
Orbital period
92.89 mins
BSTAR
0.00086865
Loading maneuver chart data...
Computing Atmospheric mass density...
Loading historical data...
Loading historical data...
Loading historical data...
Loading historical data...
Loading historical data...
Loading historical data...
Loading historical data...

Documentation

Showing up to 5 results
|